HS2LXA-WX Weather Reports


time (UTC)temp
C
wind
direction
speed
KPH
gust
KPH
rain 1hr
cm
rain 24hr
cm
rain mn
cm
humidity
%
barometer
mb
20260905160950 30 67 9.7 20.9 0.00 0.00 0.00 96 1011.5
20260905155836 30 67 38.6 88.5 0.00 0.00 0.00 95 1011.7
20260905154601 30 0 43.5 96.6 0.00 0.00 0.00 94 1011.7
20260905152835 30 112 4.8 12.9 0.00 0.00 0.00 94 1011.5
20260905151835 30 112 12.9 30.6 0.00 0.00 0.00 94 1011.3
20260905150834 30 202 29.0 64.4 0.00 0.00 0.00 94 1011.3
20260905145835 30 112 3.2 9.7 0.00 0.00 0.00 93 1011.1
20260905144834 30 67 8.0 19.3 0.00 0.00 0.00 92 1011.0
20260905142917 31 202 4.8 11.3 0.00 0.00 0.00 91 1010.6
20260905141913 30 315 14.5 33.8 0.00 0.00 0.00 91 1010.6
20260905140913 31 202 8.0 20.9 0.00 0.00 0.00 90 1010.6
20260905135913 31 0 0.0 0.0 0.00 0.00 0.00 89 1010.2
20260905134913 31 315 46.7 106.2 0.00 0.00 0.00 89 1010.2
20260905133913 31 202 12.9 30.6 0.00 0.00 0.00 88 1010.0
20260905132024 31 0 8.0 20.9 0.00 0.00 0.00 89 1009.8
20260905131024 31 112 17.7 40.2 0.00 0.00 0.00 88 1009.7
20260905130024 31 202 9.7 22.5 0.00 0.00 0.00 87 1009.8
20260905124448 31 202 8.0 19.3 0.00 0.00 0.00 87 1009.9
20260905123448 31 202 4.8 11.3 0.00 0.00 0.00 87 1009.5
20260905122448 31 112 8.0 19.3 0.00 0.00 0.00 86 1009.5
20260905121122 31 202 11.3 25.7 0.00 0.00 0.00 86 1009.5
20260905115751 31 67 35.4 80.5 0.00 0.00 0.00 86 1009.3
20260905114751 31 112 24.1 54.7 0.00 0.00 0.00 85 1009.4
20260905113751 31 67 3.2 9.7 0.00 0.00 0.00 85 1009.3
20260905112033 31 315 17.7 38.6 0.00 0.00 0.00 85 1009.2
20260905111033 31 67 19.3 45.1 0.00 0.00 0.00 84 1009.2
20260905104054 31 0 0.0 0.0 0.00 0.00 0.00 82 1008.5
20260905102532 32 67 0.0 0.0 0.00 0.00 0.00 81 1008.1
20260905101533 32 67 3.2 6.4 0.00 0.00 0.00 81 1007.9
20260905095408 32 315 22.5 49.9 0.00 0.00 0.00 81 1008.0
20260905094408 32 202 30.6 69.2 0.00 0.00 0.00 80 1008.0
20260905093408 32 67 27.4 62.8 0.00 0.00 0.00 80 1007.9
20260905092408 32 315 12.9 30.6 0.00 0.00 0.00 80 1007.8
20260905090719 32 202 62.8 140.0 0.00 0.00 0.00 81 1007.9
20260905085719 32 315 29.0 67.6 0.00 0.00 0.00 80 1007.9
20260905084023 33 67 20.9 48.3 0.00 0.00 0.00 80 1008.0
20260905082133 32 202 9.7 24.1 0.00 0.00 0.00 79 1008.2
20260905081132 32 67 6.4 16.1 0.00 0.00 0.00 80 1008.3
20260905080132 32 202 6.4 16.1 0.00 0.00 0.00 80 1008.2
20260905075132 33 67 27.4 62.8 0.00 0.00 0.00 78 1008.1
20260905074132 33 135 0.0 0.0 0.00 0.00 0.00 78 1008.2
20260905071851 33 67 54.7 123.9 0.00 0.00 0.00 78 1008.4
20260905070852 32 202 53.1 119.1 0.00 0.00 0.00 78 1008.6
20260905065852 33 202 17.7 40.2 0.00 0.00 0.00 77 1008.7
20260905064405 34 112 14.5 32.2 0.00 0.00 0.00 76 1008.9
20260905063404 34 67 32.2 74.0 0.00 0.00 0.00 75 1009.1
20260905062405 33 67 12.9 30.6 0.00 0.00 0.00 76 1009.4
20260905061403 34 112 12.9 30.6 0.00 0.00 0.00 76 1009.6
20260905060403 33 0 35.4 80.5 0.00 0.00 0.00 77 1009.8
20260905055403 33 202 38.6 88.5 0.00 0.00 0.00 77 1010.0
20260905053833 33 202 17.7 40.2 0.00 0.00 0.00 77 1010.4
20260905052833 33 0 46.7 104.6 0.00 0.00 0.00 77 1010.6
20260905051833 33 112 1.6 4.8 0.00 0.00 0.00 77 1010.9
20260905045930 33 0 0.0 0.0 0.00 0.00 0.00 78 1011.2
20260905044932 33 202 11.3 25.7 0.00 0.00 0.00 78 1011.3
20260905043928 33 315 56.3 125.5 0.00 0.00 0.00 76 1011.3
20260905042928 33 67 22.5 53.1 0.00 0.00 0.00 77 1011.4
20260905041111 33 0 11.3 25.7 0.00 0.00 0.00 78 1011.6
20260905035725 32 67 9.7 24.1 0.00 0.00 0.00 81 1011.7
20260905032059 33 315 11.3 25.7 0.00 0.00 0.00 77 1011.9
20260905031059 33 0 0.0 0.0 0.00 0.00 0.00 78 1011.9
20260905023714 32 315 38.6 88.5 0.00 0.00 0.00 81 1012.2
20260905021728 32 202 0.0 0.0 0.00 0.00 0.00 79 1012.1
20260905020420 33 202 11.3 25.7 0.00 0.00 0.00 80 1012.0
20260905015419 33 202 14.5 33.8 0.00 0.00 0.00 80 1011.9
20260905014419 33 315 1.6 3.2 0.00 0.00 0.00 80 1011.8
20260905013419 32 202 8.0 20.9 0.00 0.00 0.00 81 1011.8
20260905012033 32 202 4.8 12.9 0.00 0.00 0.00 82 1011.9
20260905011033 32 67 3.2 6.4 0.00 0.00 0.00 83 1011.7
20260905005917 32 202 11.3 25.7 0.00 0.00 0.00 83 1011.5
20260905004911 31 202 3.2 6.4 0.00 0.00 0.00 84 1011.3
20260905003911 31 0 8.0 19.3 0.00 0.00 0.00 86 1011.2
20260905002911 31 67 0.0 0.0 0.00 0.00 0.00 85 1011.0
20260905001905 31 315 0.0 0.0 0.00 0.00 0.00 84 1010.9
20260905000901 31 67 3.2 9.7 0.00 0.00 0.00 84 1010.8
20260904235901 31 315 0.0 0.0 0.00 0.00 0.00 83 1010.7
20260904234441 31 0 0.0 0.0 0.00 0.00 0.00 84 1010.6
20260904233441 31 202 0.0 0.0 0.00 0.00 0.00 83 1010.4
20260904232440 31 202 0.0 0.0 0.00 0.00 0.00 83 1010.4
20260904231440 31 202 0.0 0.0 0.00 0.00 0.00 83 1010.3
20260904230440 31 0 0.0 0.0 0.00 0.00 0.00 82 1010.2
20260904225440 31 315 0.0 0.0 0.00 0.00 0.00 82 1010.2
20260904224107 31 202 0.0 0.0 0.00 0.00 0.00 83 1010.1
20260904223107 31 202 0.0 0.0 0.00 0.00 0.00 82 1010.0
20260904222108 31 0 0.0 0.0 0.00 0.00 0.00 82 1009.9
20260904220529 31 67 0.0 0.0 0.00 0.00 0.00 83 1009.7
20260904215529 31 0 9.7 22.5 0.00 0.00 0.00 83 1009.5
20260904214529 31 202 4.8 11.3 0.00 0.00 0.00 83 1009.4
20260904213529 31 0 4.8 9.7 0.00 0.00 0.00 84 1009.4
20260904212528 31 202 6.4 14.5 0.00 0.00 0.00 83 1009.4
20260904211531 31 202 3.2 8.0 0.00 0.00 0.00 85 1009.2
20260904210527 31 67 0.0 0.0 0.00 0.00 0.00 84 1009.2
20260904205527 31 202 3.2 8.0 0.00 0.00 0.00 85 1009.0
20260904203831 32 67 0.0 0.0 0.00 0.00 0.00 87 1009.0
20260904201812 32 67 0.0 0.0 0.00 0.00 0.00 89 1009.1
20260904193508 30 270 0.0 0.0 0.00 0.00 0.00 97 1009.3
20260904192508 30 270 0.0 0.0 0.00 0.00 0.00 96 1009.3
20260904191508 30 270 0.0 0.0 0.00 0.00 0.00 97 1009.4
20260904190243 30 270 0.0 0.0 0.00 0.00 0.00 96 1009.5
20260904184856 30 270 0.0 0.0 0.00 0.00 0.00 97 1009.6
20260904183855 30 270 0.0 0.0 0.00 0.00 0.00 97 1009.7
20260904182619 30 270 0.0 0.0 0.00 0.00 0.00 97 1009.7
20260904181619 30 0 0.0 0.0 0.00 0.00 0.00 96 1009.7
20260904180544 30 202 0.0 0.0 0.00 0.00 0.00 96 1009.7
20260904175542 30 202 0.0 0.0 0.00 0.00 0.00 96 1009.9
20260904173825 30 67 0.0 0.0 0.00 0.00 0.00 95 1009.9
20260904172825 30 67 0.0 0.0 0.00 0.00 0.00 95 1010.1
20260904171654 30 67 0.0 0.0 0.00 0.00 0.00 95 1010.2
20260904170654 30 67 0.0 0.0 0.00 0.00 0.00 95 1010.3
20260904165654 30 67 0.0 0.0 0.00 0.00 0.00 94 1010.2
20260904164654 30 67 0.0 0.0 0.00 0.00 0.00 94 1010.3
20260904163653 30 67 0.0 0.0 0.00 0.00 0.00 93 1010.2
20260904162654 30 67 0.0 0.0 0.00 0.00 0.00 93 1010.5